Regional Weather Roundup
Issued by NWS Goodland, KS

Home | Current Version | Previous Version | Graphics & Text | Print | Product List | Glossary On
Versions: 1 2 3 4 5 6 7 8 9 10 11 12 13 14 15 16 17 18 19 20 21 22 23 24 25 26 27 28 29 30 31 32 33 34 35 36 37 38 39 40 41 42 43 44 45 46 47 48 49 50
000
ASUS43 KGLD 231359
RWRGLD

GOODLAND FORECAST AREA HOURLY WEATHER ROUNDUP
NATIONAL WEATHER SERVICE GOODLAND KS
800 AM MDT WED MAY 23 2018

...OFFICIAL OBSERVATIONS...

CITY           SKY/WX    TMP DP  RH WIND       PRES   REMARKS
GOODLAND KS    CLOUDY    66  52  60 S22G29    30.00S
HILL CITY KS   CLOUDY    73  62  68 S14G21    30.02R
IMPERIAL NEB   CLOUDY    68  58  70 S9        29.99R
MCCOOK NEB     PTSUNNY   72  59  63 SW9       29.99S
AKRON CO       PTSUNNY   59  52  77 W6        30.01R
BURLINGTON CO  PTSUNNY   64  51  62 S21G38    30.02R
LIMON CO       PTSUNNY   54  47  77 NW7       30.05S
$$

...UNOFFICIAL OBSERVATIONS...

CITY           SKY/WX    TMP DP  RH WIND       PRES   REMARKS
NORTON KS      SUNNY     70  61  73 SE8       30.00S
YUMA CO        FAIR      63  52  67 S9        30.00S
$$




USA.gov is the U.S. government's official web portal to all federal, state and local government web resources and services.